Location: Hackberry
(29.5783°N, 96.8797°W)
Time: 03:30:21
(UTC+00:00)

Explorer 11/Cluster Stage 4 - Pass Details

Date: 11 November 2024
Orbit: 464 x 1202 km, 28.8° (Epoch: 03 December)

Event Time Altitude Azimuth Distance (km) Brightness Sun altitude
Exits shadow 10:23:23 22° 124° (SE) 1,267 8.1 -31.8°
Drops below altitude 10° 10:25:16 10° 101° (ESE) 1,784 9.3 -31.4°
Sets 10:27:34 0° 89° (E) 2,598 10.4 -30.9°
